Date String (YYYY-MM-DD hh:mm:ss) UTC,Instrument flags,absolute air pressure of the measurement (hPa),sample flow rate (lpm),inlet stack bypass flow (lpm),air temperature of the measurement (°C),ambient temperature measured by the external sensor (°C),aerosol sample conditioner tube jacket temperature (°C),OPC LED temperature (°C),internal box temperature (°C),relative humidity of the measurement (%),span deviation,mass concentration of particles derived from Lorenz-Mie calculation of OPC scattering (μg/m³),mass concentration of particles derived from Lorenz-Mie calculation of OPC scattering (μg/m³),mass concentration of particles derived from Lorenz-Mie calculation of OPC scattering (μg/m³)
DateTimeUTC,F1_M11,P_M11,Q1_M11,Q2_M11,T1_M11,T2_M11,T3_M11,T4_M11,T5_M11,U1_M11,ZSPAN_M11,X0_M11,X2_M11,X1_M11
2023-11-23 22:00:00,SystemResetWarning,0829.8,5.00,000.00,021.0,020.1,000.0,029.3,022.2,17.6,0000.0,0009.28,0003.74,0003.14
2023-11-23 22:01:00,SystemResetWarning,0829.9,4.99,000.00,021.0,020.1,000.0,029.3,022.2,17.6,0000.0,0009.61,0003.80,0003.16
2023-11-23 22:02:00,SystemResetWarning,0829.8,4.99,000.00,021.0,020.1,000.0,029.3,022.2,17.6,0000.0,0009.78,0003.82,0003.16
2023-11-23 22:03:00,SystemResetWarning,0829.8,5.01,000.00,021.0,020.1,000.0,029.3,022.2,17.5,0000.0,0009.75,0003.84,0003.17
2023-11-23 22:04:00,SystemResetWarning,0829.9,5.01,000.00,021.0,020.0,000.0,029.3,022.2,17.5,0000.0,0009.68,0003.82,0003.18
2023-11-23 22:05:00,SystemResetWarning,0829.9,5.00,000.00,020.9,020.0,000.0,029.3,022.2,17.6,0000.0,0009.78,0003.87,0003.20
2023-11-23 22:06:00,SystemResetWarning,0830.0,4.99,000.00,020.9,020.0,000.0,029.3,022.2,17.6,0000.0,0009.72,0003.91,0003.22
2023-11-23 22:07:00,SystemResetWarning,0830.0,4.99,000.00,020.9,020.0,000.0,029.3,022.2,17.6,0000.0,0009.74,0003.95,0003.25
2023-11-23 22:08:00,SystemResetWarning,0830.0,5.01,000.00,020.9,020.0,000.0,029.3,022.2,17.6,0000.0,0010.14,0003.96,0003.26
2023-11-23 22:09:00,SystemResetWarning,0829.9,5.01,000.00,020.9,020.0,000.0,029.3,022.2,17.6,0000.0,0009.78,0003.96,0003.28
2023-11-23 22:10:00,SystemResetWarning,0829.9,4.99,000.00,020.9,020.0,000.0,029.3,022.2,17.5,0000.0,0009.39,0003.96,0003.30
2023-11-23 22:11:00,SystemResetWarning,0829.9,4.99,000.00,020.9,020.0,000.0,029.3,022.2,17.6,0000.0,0008.99,0004.01,0003.32
2023-11-23 22:12:00,SystemResetWarning,0829.9,5.01,000.00,020.9,020.0,000.0,029.3,022.1,17.6,0000.0,0008.79,0004.01,0003.33
2023-11-23 22:13:00,SystemResetWarning,0829.9,5.01,000.00,020.9,020.0,000.0,029.3,022.2,17.5,0000.0,0008.84,0004.02,0003.35
2023-11-23 22:14:00,SystemResetWarning,0829.9,4.98,000.00,020.9,020.0,000.0,029.3,022.2,17.5,0000.0,0009.74,0004.07,0003.36
2023-11-23 22:15:00,SystemResetWarning,0829.9,4.99,000.00,020.9,020.0,000.0,029.3,022.2,17.5,0000.0,0010.09,0004.12,0003.37
2023-11-23 22:16:00,SystemResetWarning,0829.9,5.00,000.00,020.9,020.0,000.0,029.3,022.2,17.5,0000.0,0010.29,0004.16,0003.38
2023-11-23 22:17:00,SystemResetWarning,0829.9,5.01,000.00,020.9,020.0,000.0,029.3,022.2,17.5,0000.0,0010.49,0004.20,0003.38
2023-11-23 22:18:00,SystemResetWarning,0829.9,5.01,000.00,020.9,020.0,000.0,029.2,022.1,17.5,0000.0,0010.32,0004.19,0003.39
2023-11-23 22:19:00,SystemResetWarning,0830.0,4.99,000.00,020.9,019.9,000.0,029.2,022.1,17.5,0000.0,0010.05,0004.21,0003.40
2023-11-23 22:20:00,SystemResetWarning,0829.9,4.99,000.00,020.9,019.9,000.0,029.2,022.1,17.5,0000.0,0010.09,0004.22,0003.41
2023-11-23 22:21:00,SystemResetWarning,0829.9,5.00,000.00,020.9,019.9,000.0,029.2,022.1,17.5,0000.0,0010.21,0004.23,0003.41
2023-11-23 22:22:00,SystemResetWarning,0829.9,5.01,000.00,020.9,019.9,000.0,029.2,022.1,17.5,0000.0,0010.36,0004.23,0003.41
2023-11-23 22:23:00,SystemResetWarning,0829.9,5.01,000.00,020.9,019.9,000.0,029.2,022.1,17.6,0000.0,0010.63,0004.20,0003.42
2023-11-23 22:24:00,SystemResetWarning,0830.0,5.00,000.00,020.9,019.9,000.0,029.2,022.1,17.5,0000.0,0010.83,0004.19,0003.43
2023-11-23 22:25:00,SystemResetWarning,0830.0,4.99,000.00,020.9,019.9,000.0,029.2,022.1,17.5,0000.0,0010.37,0004.16,0003.45
2023-11-23 22:26:00,SystemResetWarning,0830.0,5.00,000.00,020.9,019.9,000.0,029.2,022.1,17.5,0000.0,0010.58,0004.12,0003.46
2023-11-23 22:27:00,SystemResetWarning,0830.0,5.01,000.00,020.9,019.9,000.0,029.2,022.1,17.5,0000.0,0010.54,0004.09,0003.47
2023-11-23 22:28:00,SystemResetWarning,0830.0,5.01,000.00,020.8,019.9,000.0,029.2,022.1,17.5,0000.0,0010.21,0004.02,0003.47
2023-11-23 22:29:00,SystemResetWarning,0830.0,5.00,000.00,020.8,019.9,000.0,029.2,022.1,17.6,0000.0,0010.32,0004.04,0003.48
2023-11-23 22:30:00,SystemResetWarning,0830.1,5.00,000.00,020.8,019.9,000.0,029.2,022.1,17.6,0000.0,0010.13,0004.03,0003.48
2023-11-23 22:31:00,SystemResetWarning,0830.0,5.00,000.00,020.8,019.9,000.0,029.2,022.1,17.6,0000.0,0009.87,0004.09,0003.49
2023-11-23 22:32:00,SystemResetWarning,0830.0,4.99,000.00,020.8,019.9,000.0,029.2,022.0,17.7,0000.0,0009.71,0004.09,0003.49
2023-11-23 22:33:00,SystemResetWarning,0830.1,5.00,000.00,020.8,019.9,000.0,029.2,022.0,17.7,0000.0,0009.55,0004.09,0003.50
2023-11-23 22:34:00,SystemResetWarning,0830.1,5.00,000.00,020.8,019.9,000.0,029.2,022.0,17.7,0000.0,0009.50,0004.11,0003.50
2023-11-23 22:35:00,SystemResetWarning,0830.1,5.01,000.00,020.8,019.8,000.0,029.2,022.0,17.7,0000.0,0010.37,0004.16,0003.51
2023-11-23 22:36:00,SystemResetWarning,0830.1,5.01,000.00,020.8,019.8,000.0,029.1,022.0,17.7,0000.0,0010.20,0004.15,0003.51
2023-11-23 22:37:00,SystemResetWarning,0830.1,5.00,000.00,020.8,019.8,000.0,029.1,022.0,17.7,0000.0,0009.68,0004.19,0003.52
2023-11-23 22:38:00,SystemResetWarning,0830.1,4.99,000.00,020.8,019.8,000.0,029.1,022.0,17.7,0000.0,0009.68,0004.18,0003.52
2023-11-23 22:39:00,SystemResetWarning,0830.1,4.99,000.00,020.7,019.8,000.0,029.1,022.0,17.8,0000.0,0009.98,0004.21,0003.53
2023-11-23 22:40:00,SystemResetWarning,0830.1,5.00,000.00,020.7,019.8,000.0,029.1,021.9,17.8,0000.0,0009.94,0004.20,0003.53
2023-11-23 22:41:00,SystemResetWarning,0830.1,4.99,000.00,020.7,019.8,000.0,029.1,021.9,17.8,0000.0,0009.92,0004.20,0003.54
2023-11-23 22:42:00,SystemResetWarning,0830.1,5.00,000.00,020.7,019.8,000.0,029.1,021.9,17.8,0000.0,0009.84,0004.19,0003.54
2023-11-23 22:43:00,SystemResetWarning,0830.1,5.00,000.00,020.7,019.8,000.0,029.1,021.9,17.8,0000.0,0009.97,0004.21,0003.53
2023-11-23 22:44:00,SystemResetWarning,0830.2,5.00,000.00,020.7,019.8,000.0,029.1,021.9,17.8,0000.0,0009.97,0004.22,0003.53
2023-11-23 22:45:00,SystemResetWarning,0830.1,5.00,000.00,020.7,019.8,000.0,029.1,021.9,17.8,0000.0,0009.84,0004.24,0003.52
2023-11-23 22:46:00,SystemResetWarning,0830.2,5.00,000.00,020.7,019.8,000.0,029.1,021.9,17.8,0000.0,0008.83,0004.20,0003.52
2023-11-23 22:47:00,SystemResetWarning,0830.1,5.01,000.00,020.7,019.8,000.0,029.1,021.9,17.8,0000.0,0008.46,0004.20,0003.51
2023-11-23 22:48:00,SystemResetWarning,0830.1,5.00,000.00,020.7,019.8,000.0,029.1,021.9,17.8,0000.0,0008.35,0004.21,0003.51
2023-11-23 22:49:00,SystemResetWarning,0830.1,4.99,000.00,020.7,019.8,000.0,029.1,021.9,17.8,0000.0,0008.25,0004.23,0003.51
2023-11-23 22:50:00,SystemResetWarning,0830.1,5.00,000.00,020.7,019.8,000.0,029.1,021.9,17.8,0000.0,0008.21,0004.24,0003.51
2023-11-23 22:51:00,SystemResetWarning,0830.1,5.01,000.00,020.7,019.8,000.0,029.0,021.9,17.8,0000.0,0008.47,0004.26,0003.53
2023-11-23 22:52:00,SystemResetWarning,0830.1,5.01,000.00,020.7,019.8,000.0,029.0,021.9,17.8,0000.0,0009.43,0004.33,0003.56
2023-11-23 22:53:00,SystemResetWarning,0830.1,4.99,000.00,020.7,019.8,000.0,029.0,021.9,17.7,0000.0,0009.61,0004.32,0003.57
2023-11-23 22:54:00,SystemResetWarning,0830.1,4.99,000.00,020.7,019.8,000.0,029.0,021.9,17.7,0000.0,0009.91,0004.33,0003.59
2023-11-23 22:55:00,SystemResetWarning,0830.1,5.00,000.00,020.7,019.8,000.0,029.0,021.9,17.7,0000.0,0009.96,0004.36,0003.60
2023-11-23 22:56:00,SystemResetWarning,0830.1,5.01,000.00,020.7,019.8,000.0,029.0,021.9,17.7,0000.0,0009.93,0004.36,0003.62
2023-11-23 22:57:00,SystemResetWarning,0830.1,5.00,000.00,020.7,019.8,000.0,029.0,022.0,17.7,0000.0,0009.94,0004.40,0003.64
2023-11-23 22:58:00,SystemResetWarning,0830.1,5.00,000.00,020.7,019.8,000.0,029.0,021.9,17.8,0000.0,0011.20,0004.45,0003.67
2023-11-23 22:59:00,SystemResetWarning,0830.1,5.01,000.00,020.7,019.9,000.0,029.0,021.9,17.8,0000.0,0012.39,0004.52,0003.70
